This demonstration page uses our WeatherBlox Daily Observations layout. Learn more.

40.92945, -100.16068

Hourly Observations for April 16, 2018

Temp ( °F °C ) Dew Point ( °F °C ) Humidity (%) Winds ( mph kmh ) Pressure ( in mb ) Visibility ( mi km ) Precip ( " mm )
12:15 am 00:15 Clear 21 -5.9 18 -8 85 85 Calm 30.33 1027 10 16.0934 0 0
12:35 am 00:35 Clear 20 -6.5 17 -8.6 85 85 WSW 3 6 30.39 1029 10 16.0934 0 0
12:55 am 00:55 Clear 19 -7 16 -9.1 85 85 Calm 30.39 1029 10 16.0934 0 0
1:15 am 01:15 Clear 21 -6.2 17 -8.1 87 87 NNW 5 7 30.36 1028 10 16.0934 0 0
1:35 am 01:35 Clear 19 -7.3 16 -9.1 87 87 N 7 11 30.36 1028 10 16.0934 0 0
1:55 am 01:55 Clear 18 -7.6 15 -9.4 87 87 N 7 11 30.36 1028 10 16.0934 0 0
2:15 am 02:15 Clear 19 -7.5 16 -9.1 88 88 N 6 9 30.36 1028 10 16.0934 0 0
2:35 am 02:35 Clear 19 -7.2 15 -9.2 86 86 NNE 5 7 30.36 1028 10 16.0934 0 0
2:55 am 02:55 Clear 18 -7.7 15 -9.6 86 86 WNW 3 6 30.36 1028 10 16.0934 0 0
3:15 am 03:15 Clear 18 -7.7 15 -9.5 87 87 W 5 7 30.36 1028 10 16.0934 0 0
3:35 am 03:35 Clear 19 -7.1 16 -8.9 87 87 W 5 7 30.36 1028 10 16.0934 0 0
3:55 am 03:55 Clear 19 -7.3 16 -9 88 88 W 5 7 30.36 1028 10 16.0934 0 0
4:15 am 04:15 Clear 19 -7 17 -8.6 89 89 WNW 3 6 30.36 1028 10 16.0934 0 0
4:35 am 04:35 Clear 19 -7.2 16 -9.1 86 86 Calm 30.36 1028 10 16.0934 0 0
4:55 am 04:55 Clear 18 -7.7 15 -9.5 87 87 Calm 30.36 1028 10 16.0934 0 0
5:15 am 05:15 Clear 18 -7.7 15 -9.5 87 87 NNW 3 6 30.36 1028 10 16.0934 0 0
5:35 am 05:35 Clear 18 -8 15 -9.6 88 88 N 3 6 30.36 1028 10 16.0934 0 0
5:55 am 05:55 Clear 17 -8.2 14 -10 87 87 NE 5 7 30.33 1027 10 16.0934 0 0
6:15 am 06:15 Clear 18 -8 15 -9.6 88 88 Calm 30.36 1028 10 16.0934 0 0
6:35 am 06:35 Clear 18 -8 14 -9.8 87 87 ENE 3 6 30.33 1027 10 16.0934 0 0
6:55 am 06:55 Clear 18 -7.7 15 -9.5 87 87 Calm 30.33 1027 10 16.0934 0 0
7:15 am 07:15 Sunny 18 -8 15 -9.7 88 88 WSW 5 7 30.36 1028 10 16.0934 0 0
7:35 am 07:35 Sunny 19 -7 16 -8.9 86 86 Calm 30.36 1028 10 16.0934 0 0
7:55 am 07:55 Sunny 22 -5.6 19 -7.5 87 87 Calm 30.33 1027 10 16.0934 0 0
8:15 am 08:15 Sunny 24 -4.7 19 -7.1 84 84 Calm 30.33 1027 10 16.0934 0 0
8:35 am 08:35 Sunny 25 -3.9 20 -6.7 81 81 Calm 30.33 1027 10 16.0934 0 0
8:55 am 08:55 Sunny 26 -3.2 21 -6.3 79 79 Calm 30.3 1026 10 16.0934 0 0
9:15 am 09:15 Sunny 28 -2.4 21 -5.9 77 77 E 5 7 30.3 1026 10 16.0934 0 0
9:35 am 09:35 Sunny 29 -1.5 22 -5.8 73 73 SE 6 9 30.3 1026 10 16.0934 0 0
9:55 am 09:55 Sunny 30 -1 22 -5.4 72 72 ESE 7 11 30.24 1024 10 16.0934 0 0
10:15 am 10:15 Sunny 31 -0.3 22 -5.4 69 69 ESE 6 9 30.24 1024 10 16.0934 0 0
10:35 am 10:35 Sunny 32 0.1 23 -5 69 69 SE 6 9 30.24 1024 10 16.0934 0 0
10:55 am 10:55 Sunny 33 0.8 24 -4.7 67 67 SE 5 7 30.24 1024 10 16.0934 0 0
11:15 am 11:15 Sunny 35 1.8 24 -4.2 65 65 ESE 7 11 30.18 1022 10 16.0934 0 0
11:35 am 11:35 Sunny 37 2.6 24 -4.2 61 61 SE 5 7 30.18 1022 10 16.0934 0 0
11:55 am 11:55 Sunny 38 3.2 25 -3.9 60 60 SE 8 13 30.18 1022 10 16.0934 0 0
12:15 pm 12:15 Sunny 39 4.1 25 -4 56 56 ESE 12 19 30.18 1022 10 16.0934 0 0
12:35 pm 12:35 Sunny 41 5 26 -3.3 55 55 ESE 12 19 30.12 1020 10 16.0934 0 0
12:55 pm 12:55 Sunny 43 6 26 -3.1 52 52 SE 9 15 30.09 1019 10 16.0934 0 0
1:15 pm 13:15 Sunny 44 6.6 26 -3.6 48 48 SE 10 17 30.09 1019 10 16.0934 0 0
1:35 pm 13:35 Sunny 45 7.1 24 -4.2 45 45 ESE 10 17 30.06 1018 10 16.0934 0 0
1:55 pm 13:55 Sunny 46 7.8 24 -4.4 42 42 ESE 9 15 30.06 1018 10 16.0934 0 0
2:15 pm 14:15 Sunny 47 8.5 24 -4.4 40 40 SE 7 11 30.06 1018 10 16.0934 0 0
2:35 pm 14:35 Sunny 48 8.8 24 -4.5 39 39 SE 10 17 30.06 1018 10 16.0934 0 0
2:55 pm 14:55 Sunny 48 9 24 -4.4 39 39 ESE 9 15 30.06 1018 10 16.0934 0 0
3:15 pm 15:15 Sunny 49 9.7 26 -3.5 40 40 ESE 12 19 30.06 1018 10 16.0934 0 0
3:35 pm 15:35 Sunny 49 9.7 24 -4.5 37 37 SE 12 19 30.06 1018 10 16.0934 0 0
3:55 pm 15:55 Sunny 51 10.3 26 -3.4 38 38 SE 12 19 30 1016 10 16.0934 0 0
4:15 pm 16:15 Sunny 50 10.2 26 -3.5 38 38 SSE 13 20 30 1016 10 16.0934 0 0
4:35 pm 16:35 Sunny 51 10.8 26 -3.2 38 38 SSE 12 19 30 1016 10 16.0934 0 0
4:55 pm 16:55 Sunny 53 11.5 28 -2.5 38 38 SE 13 20 29.97 1015 10 16.0934 0 0
5:15 pm 17:15 Sunny 53 11.9 26 -3.6 34 34 SE 12 19 29.97 1015 10 16.0934 0 0
5:35 pm 17:35 Sunny 54 12.4 26 -3.5 33 33 SE 12 19 29.97 1015 10 16.0934 0 0
5:55 pm 17:55 Sunny 56 13.1 26 -3.2 32 32 SE 12 19 29.94 1014 10 16.0934 0 0
6:15 pm 18:15 Sunny 55 13 26 -3.6 32 32 SE 15 24 29.94 1014 10 16.0934 0 0
6:35 pm 18:35 Sunny 56 13.2 24 -4.7 29 29 SSE 13 20 29.91 1013 10 16.0934 0 0
6:55 pm 18:55 Sunny 55 13 24 -4.4 30 30 SE 16 26 29.91 1013 10 16.0934 0 0
7:15 pm 19:15 Sunny 54 12.2 24 -4.3 32 32 S 13 20 29.97 1015 10 16.0934 0 0
7:35 pm 19:35 Sunny 53 11.5 24 -4.4 33 33 SSE 10 17 29.94 1014 10 16.0934 0 0
7:55 pm 19:55 Sunny 51 10.5 24 -4.5 35 35 SSE 12 19 29.94 1014 10 16.0934 0 0
8:15 pm 20:15 Sunny 50 10.1 24 -4.5 36 36 SE 9 15 29.94 1014 10 16.0934 0 0
8:35 pm 20:35 Clear 49 9.3 24 -4.3 38 38 SE 10 17 29.97 1015 10 16.0934 0 0
8:55 pm 20:55 Clear 48 9 24 -4.5 39 39 SE 10 17 29.94 1014 10 16.0934 0 0
9:15 pm 21:15 Clear 47 8.4 25 -4.1 41 41 SE 7 11 29.97 1015 10 16.0934 0 0
9:35 pm 21:35 Clear 44 6.6 26 -3.5 49 49 SE 8 13 29.97 1015 10 16.0934 0 0
9:55 pm 21:55 Clear 43 6.2 26 -3.2 51 51 ESE 7 11 29.94 1014 10 16.0934 0 0
10:15 pm 22:15 Clear 42 5.5 27 -2.6 56 56 E 9 15 30 1016 10 16.0934 0 0
10:35 pm 22:35 Clear 41 5 28 -2 61 61 ESE 10 17 29.97 1015 10 16.0934 0 0
10:55 pm 22:55 Clear 41 4.8 29 -1.8 63 63 ESE 12 19 29.97 1015 10 16.0934 0 0
11:15 pm 23:15 Clear 39 4.1 29 -1.7 66 66 ESE 10 17 29.97 1015 10 16.0934 0 0
11:35 pm 23:35 Clear 40 4.3 29 -1.5 66 66 ESE 10 17 29.97 1015 10 16.0934 0 0
11:55 pm 23:55 Clear 39 4 29 -1.6 67 67 ESE 10 17 29.97 1015 10 16.0934 0 0

Powered by AerisWeather